TimeEST,TemperatureF,Dew PointF,Humidity,Sea Level PressureIn,VisibilityMPH,Wind Direction,Wind SpeedMPH,Gust SpeedMPH,PrecipitationIn,Events,Conditions,WindDirDegrees,DateUTC
12:51 AM,19.0,10.9,71,30.08,10.0,West,8.1,-,N/A,,Scattered Clouds,280,2013-01-26 05:51:00
1:51 AM,18.0,10.0,71,30.08,10.0,WNW,10.4,-,N/A,,Scattered Clouds,300,2013-01-26 06:51:00
2:51 AM,18.0,10.0,71,30.06,10.0,NW,8.1,-,N/A,,Scattered Clouds,310,2013-01-26 07:51:00
3:51 AM,17.1,9.0,71,30.06,10.0,NW,10.4,-,N/A,,Scattered Clouds,320,2013-01-26 08:51:00
4:51 AM,17.1,8.1,68,30.07,10.0,NW,10.4,-,0.01,,Scattered Clouds,320,2013-01-26 09:51:00
5:51 AM,16.0,8.1,71,30.09,10.0,NNW,8.1,-,N/A,,Scattered Clouds,340,2013-01-26 10:51:00
6:51 AM,16.0,7.0,68,30.12,10.0,NNW,11.5,-,N/A,,Scattered Clouds,330,2013-01-26 11:51:00
7:51 AM,16.0,8.1,71,30.14,10.0,NNW,3.5,-,N/A,,Scattered Clouds,340,2013-01-26 12:51:00
8:51 AM,19.0,9.0,65,30.15,10.0,NW,10.4,-,N/A,,Scattered Clouds,320,2013-01-26 13:51:00
9:51 AM,19.9,9.0,62,30.17,10.0,NNW,13.8,-,N/A,,Scattered Clouds,340,2013-01-26 14:51:00
10:51 AM,21.9,10.0,60,30.17,10.0,NW,12.7,-,N/A,,Scattered Clouds,320,2013-01-26 15:51:00
11:51 AM,23.0,10.0,58,30.18,10.0,NNW,11.5,-,N/A,,Scattered Clouds,330,2013-01-26 16:51:00
12:51 PM,25.0,10.0,53,30.14,10.0,NW,10.4,-,N/A,,Mostly Cloudy,310,2013-01-26 17:51:00
1:51 PM,27.0,10.0,49,30.15,10.0,WNW,12.7,-,N/A,,Scattered Clouds,300,2013-01-26 18:51:00
2:51 PM,26.1,8.1,47,30.16,10.0,WNW,12.7,-,N/A,,Partly Cloudy,300,2013-01-26 19:51:00
3:51 PM,27.0,7.0,43,30.17,10.0,NW,12.7,-,N/A,,Partly Cloudy,310,2013-01-26 20:51:00
4:51 PM,27.0,6.1,41,30.19,10.0,NW,13.8,-,N/A,,Scattered Clouds,320,2013-01-26 21:51:00
5:51 PM,25.0,5.0,43,30.22,10.0,NW,23.0,28.8,N/A,,Partly Cloudy,310,2013-01-26 22:51:00
6:51 PM,24.1,3.9,42,30.25,10.0,NNW,24.2,31.1,N/A,,Clear,330,2013-01-26 23:51:00
7:51 PM,21.9,3.9,46,30.29,10.0,NW,18.4,26.5,N/A,,Clear,320,2013-01-27 00:51:00
8:51 PM,21.0,3.9,48,30.32,10.0,NNW,16.1,26.5,N/A,,Clear,330,2013-01-27 01:51:00
9:51 PM,21.0,5.0,50,30.35,10.0,NNW,16.1,-,N/A,,Clear,330,2013-01-27 02:51:00
10:51 PM,19.9,5.0,52,30.38,10.0,NW,16.1,-,N/A,,Clear,320,2013-01-27 03:51:00
11:51 PM,19.9,5.0,52,30.38,10.0,NW,11.5,-,N/A,,Clear,310,2013-01-27 04:51:00